Tracking 35331 objects as of 15-Sep-2026
HD Live streaming from Space Station
objects crossing your sky now

ONEWEB-0696

Track ONEWEB-0696 now!
10-day predictions
ONEWEB-0696 is classified as:


NORAD ID: 56723
Int'l Code: 2023-068P
Launch date: May 20, 2023
Source: United Kingdom (UK)
Launch site: AIR FORCE WESTERN TEST RANGE (AFWTR)
Your satellite tracking list
Your tracking list is empty




NASA's NSSDC Master Catalog

Two Line Element Set (TLE):
1 56723U 23068P   26258.37666052 -.00000063  00000-0 -20183-3 0  9998
2 56723  87.8971 241.2362 0002348  75.4671 284.6719 13.15548905161222
Source of the keplerian elements: AFSPC